Погода в Тихменеве

Россия / Ярославская область     57°59′33″N   38°36′35″E
темп.,
°C
ветер,
м/с
пор.,
м/с
влажн.,
%
обл.,
%
осадки,
мм/ч
давл.,
гПа
погр.,
м
15 мая, сб
сб1500:00+13юв389740 0.9 1013261
03:00+11юв289899 0.9 1013186
06:00+13в3997100 0.0 1011285
09:00+18юв3685100 0.0 1009491
12:00+22ююв5106124 0.3 10081156
15:00+22ююв4773100 1.7 10061076
18:00+19ю4976100 2.2 1005357
21:00+15ююз41086100 5.1 1006235
16 мая, вс
вс1600:00+13ю3119429 0.2 1007288
03:00+12ю310966 0.2 1008232
06:00+13ююз4119474 0.0 1008393
09:00+16ююз697799 0.0 1009926
12:00+19юз696088 0.1 10101434
15:00+20юз596631 0.9 10101318
18:00+18юз487753 1.6 1010877
21:00+14юз389542 3.1 1012192
17 мая, пн
пн1700:00+12з229613 0.1 101342
03:00+12юз1296100 0.1 101515
06:00+13вюв11936 0.0 101652
09:00+17ююв237899 0.0 1017583
12:00+21юв2357100 0.0 10161260
15:00+23юв345299 0.0 10151594
18:00+22юв366265 0.0 10141052
21:00+17в3108990 0.0 1014229
18 мая, вт
вт1800:00+16вюв4139133 0.3 1013325
03:00+15вюв31096100 0.4 1012226
06:00+15вюв4128966 0.0 1012300
09:00+22юв61461100 0.0 1011557
12:00+26юв61346100 0.0 10101091
15:00+27юв6124355 0.0 10101989
18:00+25юв612495 0.0 10081236
21:00+20юв51665100 0.0 1008611
19 мая, ср
ср1900:00+19юв516705 0.0 1007583
03:00+17юв5147767 0.0 1006515
06:00+17юв5137799 0.0 1006574
09:00+21ююв6126589 0.0 10061159
12:00+20ю4147489 0.9 10061280
15:00+17ююв8158399 4.4 10061267
18:00+17ю71285100 1.8 10051013
21:00+13ю413930 3.9 1006505